Location: *
(57.8420°S, 159.8600°W)
Time: 11:07:06
(UTC+00:00)

Cosmos 1461 - Pass Details

Date: 18 May 2021
Orbit: 510 x 653 km, 65.0° (Epoch: 22 June)

Event Time Altitude Azimuth Distance (km) Brightness Sun altitude
Rises 03:46:17 0° 232° (SW) 2,765 6.9 -10.1°
Reaches altitude 10° 03:48:30 10° 236° (WSW) 1,886 6.1 -10.4°
Maximum altitude 03:52:39 53° 313° (NW) 729 3.8 -10.9°
Drops below altitude 10° 03:56:56 10° 29° (NNE) 1,957 5.5 -11.5°
Sets 03:59:17 0° 33° (NNE) 2,879 6.3 -11.8°
